Regional Weather Roundup
Issued by NWS

Home | Current Version | Previous Version | Text Only | Print | Product List | Glossary Off
Versions: 1 2 3 4 5 6 7 8 9 10 11 12 13 14 15 16 17 18 19 20 21 22 23 24 25 26 27 28 29 30 31 32 33 34 35 36 37 38 39 40 41 42 43 44 45 46 47 48 49 50

000
ASUS43 KFSD 202102
RWRSD

WEATHER ROUNDUP FOR SOUTH DAKOTA
NATIONAL WEATHER SERVICE SIOUX FALLS SD
300 PM CST MON NOV 20 2017

NOTE: "FAIR" INDICATES FEW OR NO CLOUDS BELOW 12,000 FEET WITH NO
SIGNIFICANT WEATHER AND/OR OBSTRUCTIONS TO VISIBILITY.


SDZ001>005-009-010-012>017-202200-
NORTHWEST AND NORTH CENTRAL SOUTH DAKOTA

CITY           SKY/WX    TMP DP  RH WIND       PRES   REMARKS
BUFFALO          N/A     53  23  31 NW33G40   29.55R
FAITH            N/A     56  22  26 NW31G39   29.58R
MOBRIDGE       MOSUNNY   57  19  22 NW18      29.49R
$$

SDZ012>016-024>037-041>051-057-063-072>074-202200-
SOUTHWEST AND SOUTH CENTRAL SOUTH DAKOTA

CITY           SKY/WX    TMP DP  RH WIND       PRES   REMARKS
RAPID CTY ARPT CLOUDY    65  18  16 N24G31    29.63R
PIERRE         SUNNY     62  19  19 NW20G29   29.53R
CUSTER         CLOUDY    49  14  24 W10G22    29.70R
ELLSWORTH AFB  MOSUNNY   64  20  18 NW25G35   29.61S
PHILIP         CLOUDY    64  20  18 NW26G36   29.58R
PINE RIDGE     CLOUDY    60  15  17 W15G21    29.66S
SPEARFISH      FAIR      57  19  23 NW16G24   29.66S
WINNER         FAIR      65  18  16 NW17      29.56R
$$

SDZ004>011-016>023-039-040-202200-
NORTHEAST SOUTH DAKOTA

CITY           SKY/WX    TMP DP  RH WIND       PRES   REMARKS
ABERDEEN       SUNNY     60  21  22 W16       29.45R
WATERTOWN      MOSUNNY   51  24  34 W10       29.44S
BROOKINGS      CLOUDY    54  24  31 W13       29.48F
SISSETON         N/A     52  25  35 W16G28    29.39S
$$

SDZ017-020-022-023-036>040-048>070-202200-
SOUTHEAST SOUTH DAKOTA

CITY           SKY/WX    TMP DP  RH WIND       PRES   REMARKS
SIOUX FALLS    CLOUDY    49  28  44 SW3       29.53R
HURON          CLOUDY    63  18  17 W20G28    29.48S
CHAMBERLAIN    MOSUNNY   64  25  23 W7        29.53S
MITCHELL       CLOUDY    60  24  25 W7        29.52S
YANKTON        MOSUNNY   53  26  35 SW3       29.54R
$$

ABBREVIATIONS USED IN REMARKS
   TC - TEMPERATURE IN CELSIUS
  WCI - WIND CHILL INDEX
   HX - HEAT INDEX
  VSB - VISIBILITY





USA.gov is the U.S. government's official web portal to all federal, state and local government web resources and services.